Wind_Speed
24 22 22 22 25 27 33 35 39 43 44 41 39 37 37 35 34 32 34 32 30 27 23 25 25 23 20 20 20 22 20 20
27 27 22 22 23 29 32 36 35 42 46 46 42 41 38 34 34 34 34 34 33 29 24 27 25 23 23 24 22 22 26 20
19 13 19 20 23 25 28 35 37 36 47 47 45 42 41 37 34 35 36 34 33 31 27 27 30 26 27 28 29 25 22 29
11 9 11 15 21 23 24 29 40 39 40 45 46 40 31 31 30 31 36 36 35 33 32 28 33 31 32 31 31 29 32 28
6 1 6 9 13 18 23 26 33 36 36 41 49 50 44 38 34 31 30 35 37 36 34 31 33 34 32 34 33 31 24 26
6 9 11 13 12 14 19 25 30 36 38 41 47 51 45 35 33 30 32 34 37 37 35 35 34 36 36 34 31 30 25 23
18 15 15 14 14 14 16 21 26 34 37 39 46 51 48 43 36 37 39 39 40 39 39 35 35 34 34 34 33 30 23 21
13 17 17 15 13 10 12 18 24 33 36 37 44 50 54 54 46 41 41 42 45 44 41 39 38 35 32 31 32 28 26 21
17 22 25 25 22 20 15 15 23 29 36 39 38 48 53 50 45 47 43 44 44 45 44 42 39 38 35 33 33 30 27 24
24 26 27 25 23 21 19 19 20 25 34 37 38 45 52 51 50 50 47 45 45 42 43 43 39 39 38 36 33 32 29 26
39 44 45 42 33 25 22 20 23 24 30 36 35 43 50 52 54 51 46 43 41 41 43 39 39 38 35 35 33 31 27 25
41 42 45 44 42 39 33 29 23 23 26 33 33 35 46 49 51 48 45 42 40 40 40 37 37 36 35 33 31 26 24 24
38 41 40 37 35 39 35 33 30 27 26 32 34 33 42 46 45 45 44 45 42 40 37 38 35 36 35 34 30 28 31 26
36 38 31 28 25 25 30 31 27 25 24 28 34 38 40 42 46 46 44 41 41 38 38 37 35 34 33 30 31 31 27 25
32 28 27 23 23 21 22 21 22 24 25 25 36 38 39 42 46 45 45 40 42 40 37 31 31 29 28 27 28 32 31 33
21 28 26 20 16 15 13 15 18 22 25 26 32 38 40 42 44 43 39 39 37 33 33 30 29 31 29 34 30 29 32 28
16 21 22 21 18 11 10 14 21 26 29 29 32 36 39 41 42 44 44 43 42 39 37 31 31 30 31 29 29 28 26 25
12 13 15 14 18 18 18 16 22 18 22 28 33 34 36 42 42 42 41 40 39 37 33 31 30 32 32 27 26 25 24 24
12 14 16 15 17 19 14 19 13 11 20 23 28 28 35 39 37 38 40 38 37 36 34 33 34 30 28 25 24 22 22 21
Wind_Direction
257 246 235 225 220 218 224 226 222 221 223 215 217 224 216 220 228 225 221 211 213 213 208 210 204 186 182 177 174 171 157 161
261 250 229 217 219 215 215 221 221 219 219 216 217 215 222 223 221 222 217 211 215 211 199 205 194 184 182 178 174 174 175 180
256 252 239 219 220 216 213 223 226 229 221 224 219 219 222 223 222 218 217 217 216 210 199 202 191 188 182 184 186 177 179 181
273 229 230 224 221 216 219 219 230 232 227 224 222 218 208 206 207 211 214 214 214 208 203 201 194 192 194 192 188 184 186 176
308 223 218 228 231 231 229 224 228 231 226 226 223 219 206 206 201 205 202 209 209 206 208 202 201 198 197 196 196 190 193 187
341 323 306 291 296 249 240 236 227 232 234 232 229 221 210 201 197 196 196 202 205 204 207 203 205 202 201 198 196 194 192 194
333 334 324 312 300 284 264 242 239 236 238 237 232 222 207 200 195 193 197 201 202 205 205 206 205 203 202 197 200 199 191 196
323 324 326 325 323 300 267 254 250 258 251 244 236 225 215 213 204 196 194 199 202 204 202 201 202 197 201 193 194 192 192 195
307 306 308 313 312 308 295 266 251 254 255 245 241 234 221 215 204 201 202 203 203 205 200 200 199 196 196 193 196 192 194 193
304 305 307 296 275 275 278 267 258 244 251 247 246 239 226 216 208 211 211 206 208 204 199 198 197 197 198 196 195 192 198 201
303 300 294 287 280 268 267 259 254 250 247 253 242 239 230 222 219 218 214 209 202 199 196 192 193 192 192 194 193 190 192 195
296 297 291 282 274 272 260 258 255 246 245 253 247 237 231 225 222 221 213 206 201 194 194 190 191 187 186 188 192 192 195 198
302 297 292 285 274 266 250 249 238 250 236 247 249 246 230 223 219 217 208 199 195 193 187 191 188 185 184 187 191 201 192 188
298 294 298 292 284 267 267 267 259 244 247 247 247 244 231 224 222 214 205 197 190 187 183 182 181 182 180 182 190 188 182 184
296 311 313 302 285 267 268 265 264 259 255 253 245 242 233 224 217 210 202 188 181 175 177 176 180 182 183 190 191 184 186 189
344 334 320 330 349 321 279 250 247 277 275 256 246 234 223 217 207 199 189 182 187 185 179 180 190 184 191 189 191 188 189 178
346 357 351 356 339 333 304 293 301 291 264 250 232 218 211 207 191 182 177 175 176 180 188 180 183 189 190 190 185 183 179 177
342 333 337 323 320 319 308 285 288 284 246 228 217 212 202 192 187 184 186 183 177 171 174 181 179 187 187 185 181 179 174 173
345 348 338 333 333 327 309 286 277 260 223 221 211 205 188 181 180 173 171 167 167 173 176 175 185 185 180 178 174 171 169 168
Height
1414 1416 1419 1421 1423 1425 1426 1427 1433 1437 1442 1445 1451 1454 1459 1460 1464 1467 1472 1475 1480 1484 1488 1491 1496 1501 1508 1511 1516 1517 1519 1523
1410 1410 1411 1414 1419 1420 1423 1422 1426 1430 1433 1436 1443 1447 1453 1456 1458 1462 1467 1469 1474 1479 1483 1485 1492 1497 1501 1506 1512 1516 1514 1517
1400 1405 1407 1410 1415 1417 1417 1419 1421 1423 1427 1432 1437 1441 1446 1450 1454 1456 1461 1464 1469 1473 1477 1479 1484 1491 1495 1499 1502 1510 1514 1513
1402 1404 1408 1410 1413 1415 1415 1416 1416 1418 1421 1425 1430 1435 1442 1443 1445 1449 1453 1459 1463 1468 1471 1474 1479 1483 1488 1492 1498 1502 1507 1508
1408 1407 1409 1411 1411 1413 1414 1412 1412 1413 1415 1416 1420 1424 1426 1431 1436 1441 1446 1450 1456 1462 1466 1470 1474 1477 1480 1485 1491 1497 1501 1506
1410 1411 1411 1409 1409 1409 1410 1409 1409 1408 1408 1411 1412 1416 1421 1425 1430 1435 1439 1443 1448 1454 1460 1464 1470 1471 1475 1480 1485 1493 1498 1504
1409 1410 1411 1409 1408 1405 1406 1407 1404 1403 1402 1404 1406 1408 1413 1416 1421 1423 1427 1431 1438 1444 1451 1456 1462 1469 1471 1476 1481 1487 1496 1500
1412 1412 1411 1408 1406 1404 1401 1403 1401 1398 1397 1398 1401 1404 1406 1407 1409 1414 1418 1420 1425 1432 1440 1447 1455 1461 1469 1472 1475 1483 1489 1496
1410 1409 1406 1403 1402 1399 1397 1396 1396 1394 1392 1393 1395 1398 1400 1402 1404 1405 1411 1417 1420 1425 1432 1440 1446 1453 1461 1467 1470 1475 1482 1489
1405 1405 1403 1401 1398 1397 1395 1392 1388 1388 1385 1387 1390 1392 1392 1394 1397 1399 1405 1409 1414 1420 1427 1433 1441 1447 1453 1460 1466 1470 1473 1486
1402 1401 1398 1395 1391 1389 1386 1385 1383 1380 1379 1377 1381 1385 1386 1388 1390 1393 1398 1404 1408 1414 1422 1428 1433 1441 1448 1456 1461 1463 1467 1482
1395 1392 1388 1382 1379 1378 1373 1374 1375 1374 1372 1368 1372 1376 1380 1382 1385 1388 1391 1398 1404 1409 1416 1422 1429 1437 1443 1449 1458 1461 1465 1475
1384 1380 1374 1367 1365 1364 1363 1362 1359 1364 1364 1362 1366 1368 1371 1375 1380 1383 1387 1390 1394 1405 1412 1418 1428 1433 1440 1445 1450 1459 1463 1470
1375 1370 1362 1358 1355 1355 1355 1353 1348 1357 1358 1357 1358 1361 1364 1367 1371 1376 1382 1388 1390 1399 1407 1415 1423 1432 1437 1442 1451 1456 1459 1470
1366 1361 1356 1352 1350 1348 1350 1349 1348 1350 1353 1351 1353 1354 1357 1361 1366 1370 1376 1382 1385 1392 1402 1413 1423 1431 1435 1442 1453 1451 1457 1468
1363 1363 1357 1351 1346 1345 1345 1347 1347 1349 1347 1345 1345 1348 1353 1356 1361 1366 1373 1381 1390 1389 1403 1412 1423 1427 1435 1441 1447 1452 1462 1461
1366 1362 1357 1352 1350 1348 1346 1346 1345 1341 1338 1339 1340 1343 1348 1353 1355 1362 1369 1377 1384 1392 1403 1410 1418 1429 1435 1442 1446 1453 1455 1457
1366 1363 1359 1355 1352 1349 1343 1340 1340 1338 1335 1335 1336 1340 1345 1348 1355 1364 1371 1377 1384 1393 1403 1411 1419 1429 1434 1439 1445 1449 1451 1457
1366 1362 1359 1354 1350 1347 1342 1338 1337 1334 1333 1334 1336 1339 1345 1351 1357 1364 1370 1378 1386 1394 1403 1412 1420 1428 1432 1439 1443 1447 1451 1456